This is the latest recevied weather packets stored in our database for station/object W8CEN. If no packets are shown the sender has not sent any weather packets the latest 10 day(s).
| Time | Temp. | Humidity | Pressure | Rain* | Wind** | Luminosity | Snow |
|---|---|---|---|---|---|---|---|
| 1777688018 | 5° C | 94% | 994.8 hPa | 0 mm | - | 0 W/m² | - |
| 1777687715 | 5° C | 94% | 994.7 hPa | 0 mm | - | 0 W/m² | - |
| 1777687413 | 5° C | 94% | 994.5 hPa | 0 mm | - | 0 W/m² | - |
| 1777687109 | 5° C | 94% | 994.6 hPa | 0 mm | - | 0 W/m² | - |
| 1777686807 | 5° C | 94% | 994.5 hPa | 0 mm | - | 0 W/m² | - |
| 1777686504 | 5° C | 93% | 994.4 hPa | 0 mm | - | 0 W/m² | - |
| 1777686201 | 5° C | 93% | 994.5 hPa | 0 mm | - | 0 W/m² | - |
| 1777685897 | 5° C | 93% | 994.2 hPa | 0 mm | - | 0 W/m² | - |
| 1777685593 | 5° C | 93% | 994.3 hPa | 0 mm | - | 0 W/m² | - |
| 1777685289 | 5° C | 93% | 994.3 hPa | 0 mm | - | 0 W/m² | - |
| 1777684987 | 5° C | 93% | 994.3 hPa | 0 mm | - | 0 W/m² | - |
| 1777684684 | 5° C | 93% | 994.2 hPa | 0 mm | - | 0 W/m² | - |
| 1777684380 | 5° C | 93% | 994.2 hPa | 0 mm | - | 0 W/m² | - |
| 1777684078 | 5° C | 93% | 993.9 hPa | 0 mm | - | 0 W/m² | - |
| 1777683774 | 5° C | 92% | 994.1 hPa | 0 mm | - | 0 W/m² | - |
| 1777683471 | 5° C | 92% | 994 hPa | 0 mm | - | 0 W/m² | - |
| 1777683169 | 5° C | 90% | 994 hPa | 0 mm | - | 0 W/m² | - |
| 1777682865 | 5.56° C | 90% | 993.9 hPa | 1.78 mm | - | 0 W/m² | - |
| 1777682562 | 5.56° C | 88% | 994 hPa | 4.83 mm | - | 0 W/m² | - |
| 1777682260 | 5.56° C | 87% | 993.8 hPa | 6.1 mm | - | 0 W/m² | - |
| 1777681957 | 5.56° C | 85% | 994.1 hPa | 4.83 mm | - | 0 W/m² | - |
| 1777681652 | 5.56° C | 88% | 994 hPa | 0 mm | - | 0 W/m² | - |
| 1777681350 | 5.56° C | 90% | 993.9 hPa | 0 mm | - | 1 W/m² | - |
| 1777681047 | 5.56° C | 89% | 993.6 hPa | 0 mm | - | 4 W/m² | - |
| 1777680745 | 6.11° C | 87% | 993.3 hPa | 0 mm | - | 9 W/m² | - |
* Rain latest hour (hover to see other rain measurements)
** Current wind speed in m/s (hover to see current wind gust speed)